Year,Month,Day,Hour,Minute,Value (Times are PST for temperature in C)
2010,11,12,00,00,6.40
2010,11,12,00,01,6.40
2010,11,12,00,02,6.40
2010,11,12,00,03,6.30
2010,11,12,00,04,6.30
2010,11,12,00,05,6.30
2010,11,12,00,06,6.20
2010,11,12,00,07,6.20
2010,11,12,00,08,6.20
2010,11,12,00,09,6.10
2010,11,12,00,10,6.10
2010,11,12,00,11,6.10
2010,11,12,00,12,6.00
2010,11,12,00,13,6.00
2010,11,12,00,14,5.90
2010,11,12,00,15,5.90
2010,11,12,00,16,5.90
2010,11,12,00,17,5.80
2010,11,12,00,18,5.80
2010,11,12,00,19,5.80
2010,11,12,00,20,5.70
2010,11,12,00,21,5.70
2010,11,12,00,22,5.60
2010,11,12,00,23,5.60
2010,11,12,00,24,5.50
2010,11,12,00,25,5.50
2010,11,12,00,26,5.50
2010,11,12,00,27,5.50
2010,11,12,00,28,5.50
2010,11,12,00,29,5.60
2010,11,12,00,30,5.60
2010,11,12,00,31,5.70
2010,11,12,00,32,5.70
2010,11,12,00,33,5.70
2010,11,12,00,34,5.80
2010,11,12,00,35,5.80
2010,11,12,00,36,6.00
2010,11,12,00,37,6.10
2010,11,12,00,38,6.20
2010,11,12,00,39,6.30
2010,11,12,00,40,6.40
2010,11,12,00,41,6.60
2010,11,12,00,42,6.70
2010,11,12,00,43,6.80
2010,11,12,00,44,6.90
2010,11,12,00,45,6.90
2010,11,12,00,46,6.90
2010,11,12,00,47,6.90
2010,11,12,00,48,6.90
2010,11,12,00,49,6.90
2010,11,12,00,50,6.90
2010,11,12,00,51,6.90
2010,11,12,00,52,6.90
2010,11,12,00,53,6.80
2010,11,12,00,54,6.80
2010,11,12,00,55,6.80
2010,11,12,00,56,6.80
2010,11,12,00,57,6.80
2010,11,12,00,58,6.80
2010,11,12,00,59,6.80
2010,11,12,01,00,6.80
2010,11,12,01,01,6.80
2010,11,12,01,02,6.90
2010,11,12,01,03,6.90
2010,11,12,01,04,6.90
2010,11,12,01,05,6.90
2010,11,12,01,06,6.90
2010,11,12,01,07,6.90
2010,11,12,01,08,7.00
2010,11,12,01,09,7.00
2010,11,12,01,10,7.00
2010,11,12,01,11,6.90
2010,11,12,01,12,7.00
2010,11,12,01,13,7.00
2010,11,12,01,14,7.00
2010,11,12,01,15,7.00
2010,11,12,01,16,7.00
2010,11,12,01,17,7.00
2010,11,12,01,18,7.00
2010,11,12,01,19,7.10
2010,11,12,01,20,7.10
2010,11,12,01,21,7.10
2010,11,12,01,22,7.00
2010,11,12,01,23,7.10
2010,11,12,01,24,7.10
2010,11,12,01,25,7.10
2010,11,12,01,26,7.10
2010,11,12,01,27,7.20
2010,11,12,01,28,7.10
2010,11,12,01,29,7.10
2010,11,12,01,30,7.10
2010,11,12,01,31,7.00
2010,11,12,01,32,6.90
2010,11,12,01,33,6.80
2010,11,12,01,34,6.70
2010,11,12,01,35,6.50
2010,11,12,01,36,6.40
2010,11,12,01,37,6.30
2010,11,12,01,38,6.20
2010,11,12,01,39,6.20
2010,11,12,01,40,6.10
2010,11,12,01,41,6.00
2010,11,12,01,42,6.00
2010,11,12,01,43,5.90
2010,11,12,01,44,5.90
2010,11,12,01,45,5.80
2010,11,12,01,46,5.80
2010,11,12,01,47,5.80
2010,11,12,01,48,5.80
2010,11,12,01,49,5.80
2010,11,12,01,50,5.80
2010,11,12,01,51,5.80
2010,11,12,01,52,5.80
2010,11,12,01,53,5.90
2010,11,12,01,54,5.90
2010,11,12,01,55,5.90
2010,11,12,01,56,5.90
2010,11,12,01,57,5.90
2010,11,12,01,58,5.90
2010,11,12,01,59,5.90
2010,11,12,02,00,5.90
2010,11,12,02,01,5.80
2010,11,12,02,02,5.80
2010,11,12,02,03,5.80
2010,11,12,02,04,5.80
2010,11,12,02,05,5.70
2010,11,12,02,06,5.70
2010,11,12,02,07,5.70
2010,11,12,02,08,5.60
2010,11,12,02,09,5.60
2010,11,12,02,10,5.50
2010,11,12,02,11,5.50
2010,11,12,02,12,5.40
2010,11,12,02,13,5.30
2010,11,12,02,14,5.30
2010,11,12,02,15,5.30
2010,11,12,02,16,5.20
2010,11,12,02,17,5.20
2010,11,12,02,18,5.10
2010,11,12,02,19,5.10
2010,11,12,02,20,5.10
2010,11,12,02,21,5.10
2010,11,12,02,22,5.10
2010,11,12,02,23,5.10
2010,11,12,02,24,5.00
2010,11,12,02,25,5.00
2010,11,12,02,26,5.00
2010,11,12,02,27,5.00
2010,11,12,02,28,4.90
2010,11,12,02,29,4.90
2010,11,12,02,30,4.90
2010,11,12,02,31,4.90
2010,11,12,02,32,4.80
2010,11,12,02,33,4.80
2010,11,12,02,34,4.80
2010,11,12,02,35,4.80
2010,11,12,02,36,4.70
2010,11,12,02,37,4.70
2010,11,12,02,38,4.70
2010,11,12,02,39,4.60
2010,11,12,02,40,4.60
2010,11,12,02,41,4.60
2010,11,12,02,42,4.50
2010,11,12,02,43,4.50
2010,11,12,02,44,4.50
2010,11,12,02,45,4.40
2010,11,12,02,46,4.40
2010,11,12,02,47,4.40
2010,11,12,02,48,4.30
2010,11,12,02,49,4.30
2010,11,12,02,50,4.30
2010,11,12,02,51,4.30
2010,11,12,02,52,4.30
2010,11,12,02,53,4.20
2010,11,12,02,54,4.20
2010,11,12,02,55,4.20
2010,11,12,02,56,4.20
2010,11,12,02,57,4.10
2010,11,12,02,58,4.10
2010,11,12,02,59,4.10
2010,11,12,03,00,4.10
2010,11,12,03,01,4.00
2010,11,12,03,02,4.00
2010,11,12,03,03,4.00
2010,11,12,03,04,4.00
2010,11,12,03,05,4.00
2010,11,12,03,06,3.90
2010,11,12,03,07,3.90
2010,11,12,03,08,3.80
2010,11,12,03,09,3.80
2010,11,12,03,10,3.70
2010,11,12,03,11,3.70
2010,11,12,03,12,3.70
2010,11,12,03,13,3.60
2010,11,12,03,14,3.60
2010,11,12,03,15,3.50
2010,11,12,03,16,3.50
2010,11,12,03,17,3.50
2010,11,12,03,18,3.40
2010,11,12,03,19,3.40
2010,11,12,03,20,3.40
2010,11,12,03,21,3.30
2010,11,12,03,22,3.30
2010,11,12,03,23,3.30
2010,11,12,03,24,3.30
2010,11,12,03,25,3.30
2010,11,12,03,26,3.20
2010,11,12,03,27,3.20
2010,11,12,03,28,3.20
2010,11,12,03,29,3.20
2010,11,12,03,30,3.20
2010,11,12,03,31,3.20
2010,11,12,03,32,3.20
2010,11,12,03,33,3.20
2010,11,12,03,34,3.20
2010,11,12,03,35,3.20
2010,11,12,03,36,3.20
2010,11,12,03,37,3.20
2010,11,12,03,38,3.20
2010,11,12,03,39,3.10
2010,11,12,03,40,3.10
2010,11,12,03,41,3.10
2010,11,12,03,42,3.10
2010,11,12,03,43,3.10
2010,11,12,03,44,3.10
2010,11,12,03,45,3.00
2010,11,12,03,46,3.00
2010,11,12,03,47,3.00
2010,11,12,03,48,2.90
2010,11,12,03,49,2.90
2010,11,12,03,50,2.90
2010,11,12,03,51,2.90
2010,11,12,03,52,2.80
2010,11,12,03,53,2.80
2010,11,12,03,54,2.80
2010,11,12,03,55,2.80
2010,11,12,03,56,2.80
2010,11,12,03,57,2.90
2010,11,12,03,58,2.90
2010,11,12,03,59,2.90
2010,11,12,04,00,3.00
2010,11,12,04,01,3.00
2010,11,12,04,02,3.00
2010,11,12,04,03,2.90
2010,11,12,04,04,2.90
2010,11,12,04,05,2.90
2010,11,12,04,06,2.90
2010,11,12,04,07,2.90
2010,11,12,04,08,2.90
2010,11,12,04,09,2.80
2010,11,12,04,10,2.80
2010,11,12,04,11,2.80
2010,11,12,04,12,2.80
2010,11,12,04,13,2.80
2010,11,12,04,14,2.80
2010,11,12,04,15,2.80
2010,11,12,04,16,2.70
2010,11,12,04,17,2.80
2010,11,12,04,18,2.80
2010,11,12,04,19,2.80
2010,11,12,04,20,2.80
2010,11,12,04,21,2.80
2010,11,12,04,22,2.80
2010,11,12,04,23,2.80
2010,11,12,04,24,2.80
2010,11,12,04,25,2.80
2010,11,12,04,26,2.80
2010,11,12,04,27,2.80
2010,11,12,04,28,2.70
2010,11,12,04,29,2.70
2010,11,12,04,30,2.70
2010,11,12,04,31,2.70
2010,11,12,04,32,2.60
2010,11,12,04,33,2.60
2010,11,12,04,34,2.60
2010,11,12,04,35,2.60
2010,11,12,04,36,2.50
2010,11,12,04,37,2.50
2010,11,12,04,38,2.50
2010,11,12,04,39,2.40
2010,11,12,04,40,2.40
2010,11,12,04,41,2.40
2010,11,12,04,42,2.40
2010,11,12,04,43,2.40
2010,11,12,04,44,2.40
2010,11,12,04,45,2.40
2010,11,12,04,46,2.50
2010,11,12,04,47,2.50
2010,11,12,04,48,2.50
2010,11,12,04,49,2.60
2010,11,12,04,50,2.60
2010,11,12,04,51,2.60
2010,11,12,04,52,2.60
2010,11,12,04,53,2.60
2010,11,12,04,54,2.70
2010,11,12,04,55,2.70
2010,11,12,04,56,2.60
2010,11,12,04,57,2.60
2010,11,12,04,58,2.70
2010,11,12,04,59,2.70
2010,11,12,05,00,2.70
2010,11,12,05,01,2.70
2010,11,12,05,02,2.70
2010,11,12,05,03,2.70
2010,11,12,05,04,2.70
2010,11,12,05,05,2.60
2010,11,12,05,06,2.60
2010,11,12,05,07,2.60
2010,11,12,05,08,2.50
2010,11,12,05,09,2.50
2010,11,12,05,10,2.40
2010,11,12,05,11,2.40
2010,11,12,05,12,2.40
2010,11,12,05,13,2.40
2010,11,12,05,14,2.40
2010,11,12,05,15,2.40
2010,11,12,05,16,2.40
2010,11,12,05,17,2.40
2010,11,12,05,18,2.30
2010,11,12,05,19,2.30
2010,11,12,05,20,2.30
2010,11,12,05,21,2.30
2010,11,12,05,22,2.30
2010,11,12,05,23,2.30
2010,11,12,05,24,2.30
2010,11,12,05,25,2.30
2010,11,12,05,26,2.30
2010,11,12,05,27,2.30
2010,11,12,05,28,2.30
2010,11,12,05,29,2.30
2010,11,12,05,30,2.30
2010,11,12,05,31,2.30
2010,11,12,05,32,2.40
2010,11,12,05,33,2.40
2010,11,12,05,34,2.50
2010,11,12,05,35,2.50
2010,11,12,05,36,2.60
2010,11,12,05,37,2.70
2010,11,12,05,38,2.70
2010,11,12,05,39,2.80
2010,11,12,05,40,2.80
2010,11,12,05,41,2.80
2010,11,12,05,42,2.80
2010,11,12,05,43,2.80
2010,11,12,05,44,2.90
2010,11,12,05,45,2.80
2010,11,12,05,46,2.80
2010,11,12,05,47,2.80
2010,11,12,05,48,2.80
2010,11,12,05,49,2.80
2010,11,12,05,50,2.80
2010,11,12,05,51,2.80
2010,11,12,05,52,2.80
2010,11,12,05,53,2.70
2010,11,12,05,54,2.70
2010,11,12,05,55,2.70
2010,11,12,05,56,2.60
2010,11,12,05,57,2.60
2010,11,12,05,58,2.60
2010,11,12,05,59,2.50
2010,11,12,06,00,2.50
2010,11,12,06,01,2.40
2010,11,12,06,02,2.40
2010,11,12,06,03,2.40
2010,11,12,06,04,2.40
2010,11,12,06,05,2.40
2010,11,12,06,06,2.40
2010,11,12,06,07,2.50
2010,11,12,06,08,2.50
2010,11,12,06,09,2.50
2010,11,12,06,10,2.50
2010,11,12,06,11,2.50
2010,11,12,06,12,2.50
2010,11,12,06,13,2.50
2010,11,12,06,14,2.50
2010,11,12,06,15,2.50
2010,11,12,06,16,2.50
2010,11,12,06,17,2.50
2010,11,12,06,18,2.50
2010,11,12,06,19,2.50
2010,11,12,06,20,2.60
2010,11,12,06,21,2.60
2010,11,12,06,22,2.60
2010,11,12,06,23,2.60
2010,11,12,06,24,2.60
2010,11,12,06,25,2.60
2010,11,12,06,26,2.60
2010,11,12,06,27,2.60
2010,11,12,06,28,2.60
2010,11,12,06,29,2.70
2010,11,12,06,30,2.70
2010,11,12,06,31,2.80
2010,11,12,06,32,2.80
2010,11,12,06,33,2.80
2010,11,12,06,34,2.90
2010,11,12,06,35,2.90
2010,11,12,06,36,2.90
2010,11,12,06,37,2.90
2010,11,12,06,38,3.00
2010,11,12,06,39,3.00
2010,11,12,06,40,3.00
2010,11,12,06,41,3.00
2010,11,12,06,42,3.10
2010,11,12,06,43,3.10
2010,11,12,06,44,3.10
2010,11,12,06,45,3.10
2010,11,12,06,46,3.10
2010,11,12,06,47,3.10
2010,11,12,06,48,3.10
2010,11,12,06,49,3.10
2010,11,12,06,50,3.10
2010,11,12,06,51,3.10
2010,11,12,06,52,3.10
2010,11,12,06,53,3.10
2010,11,12,06,54,3.10
2010,11,12,06,55,3.10
2010,11,12,06,56,3.10
2010,11,12,06,57,3.10
2010,11,12,06,58,3.20
2010,11,12,06,59,3.20
2010,11,12,07,00,3.20
2010,11,12,07,01,3.20
2010,11,12,07,02,3.30
2010,11,12,07,03,3.30
2010,11,12,07,04,3.40
2010,11,12,07,05,3.40
2010,11,12,07,06,3.40
2010,11,12,07,07,3.40
2010,11,12,07,08,3.40
2010,11,12,07,09,3.30
2010,11,12,07,10,3.30
2010,11,12,07,11,3.30
2010,11,12,07,12,3.30
2010,11,12,07,13,3.30
2010,11,12,07,14,3.30
2010,11,12,07,15,3.30
2010,11,12,07,16,3.30
2010,11,12,07,17,3.30
2010,11,12,07,18,3.30
2010,11,12,07,19,3.30
2010,11,12,07,20,3.30
2010,11,12,07,21,3.30
2010,11,12,07,22,3.20
2010,11,12,07,23,3.20
2010,11,12,07,24,3.20
2010,11,12,07,25,3.10
2010,11,12,07,26,3.10
2010,11,12,07,27,3.00
2010,11,12,07,28,3.00
2010,11,12,07,29,2.90
2010,11,12,07,30,2.90
2010,11,12,07,31,2.90
2010,11,12,07,32,2.90
2010,11,12,07,33,2.80
2010,11,12,07,34,2.80
2010,11,12,07,35,2.80
2010,11,12,07,36,2.80
2010,11,12,07,37,2.80
2010,11,12,07,38,2.80
2010,11,12,07,39,2.80
2010,11,12,07,40,2.80
2010,11,12,07,41,2.90
2010,11,12,07,42,2.90
2010,11,12,07,43,2.90
2010,11,12,07,44,2.90
2010,11,12,07,45,2.90
2010,11,12,07,46,2.90
2010,11,12,07,47,2.90
2010,11,12,07,48,2.90
2010,11,12,07,49,2.90
2010,11,12,07,50,2.90
2010,11,12,07,51,2.90
2010,11,12,07,52,2.90
2010,11,12,07,53,2.90
2010,11,12,07,54,2.90
2010,11,12,07,55,2.90
2010,11,12,07,56,2.90
2010,11,12,07,57,2.90
2010,11,12,07,58,2.90
2010,11,12,07,59,2.90
2010,11,12,08,00,2.90
2010,11,12,08,01,2.90
2010,11,12,08,02,2.90
2010,11,12,08,03,3.00
2010,11,12,08,04,3.00
2010,11,12,08,05,3.00
2010,11,12,08,06,3.00
2010,11,12,08,07,3.10
2010,11,12,08,08,3.10
2010,11,12,08,09,3.10
2010,11,12,08,10,3.10
2010,11,12,08,11,3.20
2010,11,12,08,12,3.20
2010,11,12,08,13,3.20
2010,11,12,08,14,3.30
2010,11,12,08,15,3.30
2010,11,12,08,16,3.30
2010,11,12,08,17,3.30
2010,11,12,08,18,3.40
2010,11,12,08,19,3.40
2010,11,12,08,20,3.50
2010,11,12,08,21,3.50
2010,11,12,08,22,3.60
2010,11,12,08,23,3.70
2010,11,12,08,24,3.80
2010,11,12,08,25,3.80
2010,11,12,08,26,3.90
2010,11,12,08,27,4.00
2010,11,12,08,28,4.10
2010,11,12,08,29,4.10
2010,11,12,08,30,4.20
2010,11,12,08,31,4.30
2010,11,12,08,32,4.30
2010,11,12,08,33,4.40
2010,11,12,08,34,4.40
2010,11,12,08,35,4.50
2010,11,12,08,36,4.50
2010,11,12,08,37,4.60
2010,11,12,08,38,4.70
2010,11,12,08,39,4.70
2010,11,12,08,40,4.70
2010,11,12,08,41,4.80
2010,11,12,08,42,4.80
2010,11,12,08,43,4.80
2010,11,12,08,44,4.80
2010,11,12,08,45,4.90
2010,11,12,08,46,4.90
2010,11,12,08,47,4.90
2010,11,12,08,48,5.00
2010,11,12,08,49,5.00
2010,11,12,08,50,5.10
2010,11,12,08,51,5.10
2010,11,12,08,52,5.10
2010,11,12,08,53,5.10
2010,11,12,08,54,5.20
2010,11,12,08,55,5.20
2010,11,12,08,56,5.20
2010,11,12,08,57,5.30
2010,11,12,08,58,5.30
2010,11,12,08,59,5.30
2010,11,12,09,00,5.30
2010,11,12,09,01,5.40
2010,11,12,09,02,5.40
2010,11,12,09,03,5.40
2010,11,12,09,04,5.50
2010,11,12,09,05,5.50
2010,11,12,09,06,5.60
2010,11,12,09,07,5.60
2010,11,12,09,08,5.60
2010,11,12,09,09,5.70
2010,11,12,09,10,5.70
2010,11,12,09,11,5.70
2010,11,12,09,12,5.80
2010,11,12,09,13,5.90
2010,11,12,09,14,5.90
2010,11,12,09,15,6.00
2010,11,12,09,16,6.00
2010,11,12,09,17,6.10
2010,11,12,09,18,6.10
2010,11,12,09,19,6.20
2010,11,12,09,20,6.20
2010,11,12,09,21,6.30
2010,11,12,09,22,6.30
2010,11,12,09,23,6.30
2010,11,12,09,24,6.40
2010,11,12,09,25,6.50
2010,11,12,09,26,6.50
2010,11,12,09,27,6.60
2010,11,12,09,28,6.70
2010,11,12,09,29,6.80
2010,11,12,09,30,6.90
2010,11,12,09,31,6.90
2010,11,12,09,32,7.00
2010,11,12,09,33,7.10
2010,11,12,09,34,7.20
2010,11,12,09,35,7.30
2010,11,12,09,36,7.40
2010,11,12,09,37,7.50
2010,11,12,09,38,7.60
2010,11,12,09,39,7.70
2010,11,12,09,40,7.80
2010,11,12,09,41,8.00
2010,11,12,09,42,8.10
2010,11,12,09,43,8.10
2010,11,12,09,44,8.20
2010,11,12,09,45,8.30
2010,11,12,09,46,8.30
2010,11,12,09,47,8.40
2010,11,12,09,48,8.40
2010,11,12,09,49,8.40
2010,11,12,09,50,8.50
2010,11,12,09,51,8.50
2010,11,12,09,52,8.60
2010,11,12,09,53,8.60
2010,11,12,09,54,8.70
2010,11,12,09,55,8.80
2010,11,12,09,56,8.80
2010,11,12,09,57,8.90
2010,11,12,09,58,9.00
2010,11,12,09,59,9.10
2010,11,12,10,00,9.20
2010,11,12,10,01,9.20
2010,11,12,10,02,9.30
2010,11,12,10,03,9.30
2010,11,12,10,04,9.40
2010,11,12,10,05,9.40
2010,11,12,10,06,9.40
2010,11,12,10,07,9.50
2010,11,12,10,08,9.50
2010,11,12,10,09,9.50
2010,11,12,10,10,9.60
2010,11,12,10,11,9.60
2010,11,12,10,12,9.60
2010,11,12,10,13,9.60
2010,11,12,10,14,9.60
2010,11,12,10,15,9.60
2010,11,12,10,16,9.70
2010,11,12,10,17,9.70
2010,11,12,10,18,9.70
2010,11,12,10,19,9.70
2010,11,12,10,20,9.70
2010,11,12,10,21,9.80
2010,11,12,10,22,9.80
2010,11,12,10,23,9.80
2010,11,12,10,24,9.80
2010,11,12,10,25,9.90
2010,11,12,10,26,9.90
2010,11,12,10,27,9.90
2010,11,12,10,28,9.90
2010,11,12,10,29,10.00
2010,11,12,10,30,10.00
2010,11,12,10,31,10.10
2010,11,12,10,32,10.10
2010,11,12,10,33,10.00
2010,11,12,10,34,10.00
2010,11,12,10,35,10.00
2010,11,12,10,36,10.00
2010,11,12,10,37,10.00
2010,11,12,10,38,10.00
2010,11,12,10,39,10.10
2010,11,12,10,40,10.10
2010,11,12,10,41,10.10
2010,11,12,10,42,10.10
2010,11,12,10,43,10.10
2010,11,12,10,44,10.10
2010,11,12,10,45,10.10
2010,11,12,10,46,10.10
2010,11,12,10,47,10.10
2010,11,12,10,48,10.10
2010,11,12,10,49,10.10
2010,11,12,10,50,10.10
2010,11,12,10,51,10.00
2010,11,12,10,52,10.00
2010,11,12,10,53,10.00
2010,11,12,10,54,10.00
2010,11,12,10,55,9.90
2010,11,12,10,56,9.90
2010,11,12,10,57,9.90
2010,11,12,10,58,9.90
2010,11,12,10,59,9.90
2010,11,12,11,00,9.90
2010,11,12,11,01,9.90
2010,11,12,11,02,9.90
2010,11,12,11,03,9.90
2010,11,12,11,04,9.90
2010,11,12,11,05,9.80
2010,11,12,11,06,9.80
2010,11,12,11,07,9.80
2010,11,12,11,08,9.80
2010,11,12,11,09,9.80
2010,11,12,11,10,9.80
2010,11,12,11,11,9.80
2010,11,12,11,12,9.80
2010,11,12,11,13,9.80
2010,11,12,11,14,9.80
2010,11,12,11,15,9.80
2010,11,12,11,16,9.80
2010,11,12,11,17,9.80
2010,11,12,11,18,9.80
2010,11,12,11,19,9.90
2010,11,12,11,20,9.90
2010,11,12,11,21,9.90
2010,11,12,11,22,9.90
2010,11,12,11,23,10.00
2010,11,12,11,24,10.10
2010,11,12,11,25,10.10
2010,11,12,11,26,10.20
2010,11,12,11,27,10.20
2010,11,12,11,28,10.30
2010,11,12,11,29,10.40
2010,11,12,11,30,10.50
2010,11,12,11,31,10.60
2010,11,12,11,32,10.70
2010,11,12,11,33,10.70
2010,11,12,11,34,10.80
2010,11,12,11,35,10.80
2010,11,12,11,36,10.80
2010,11,12,11,37,10.80
2010,11,12,11,38,10.90
2010,11,12,11,39,10.90
2010,11,12,11,40,10.90
2010,11,12,11,41,10.90
2010,11,12,11,42,11.00
2010,11,12,11,43,11.00
2010,11,12,11,44,11.00
2010,11,12,11,45,10.90
2010,11,12,11,46,10.90
2010,11,12,11,47,10.80
2010,11,12,11,48,10.80
2010,11,12,11,49,10.80
2010,11,12,11,50,10.80
2010,11,12,11,51,10.80
2010,11,12,11,52,10.90
2010,11,12,11,53,10.90
2010,11,12,11,54,10.90
2010,11,12,11,55,10.90
2010,11,12,11,56,10.90
2010,11,12,11,57,10.90
2010,11,12,11,58,10.90
2010,11,12,11,59,10.90
2010,11,12,12,00,10.90
2010,11,12,12,01,10.90
2010,11,12,12,02,10.90
2010,11,12,12,03,10.90
2010,11,12,12,04,11.00
2010,11,12,12,05,11.00
2010,11,12,12,06,11.00
2010,11,12,12,07,11.00
2010,11,12,12,08,11.00
2010,11,12,12,09,11.00
2010,11,12,12,10,11.00
2010,11,12,12,11,11.00
2010,11,12,12,12,11.10
2010,11,12,12,13,11.10
2010,11,12,12,14,11.10
2010,11,12,12,15,11.10
2010,11,12,12,16,11.10
2010,11,12,12,17,11.10
2010,11,12,12,18,11.20
2010,11,12,12,19,11.20
2010,11,12,12,20,11.20
2010,11,12,12,21,11.20
2010,11,12,12,22,11.10
2010,11,12,12,23,11.10
2010,11,12,12,24,11.10
2010,11,12,12,25,11.20
2010,11,12,12,26,11.20
2010,11,12,12,27,11.30
2010,11,12,12,28,11.30
2010,11,12,12,29,11.30
2010,11,12,12,30,11.30
2010,11,12,12,31,11.40
2010,11,12,12,32,11.40
2010,11,12,12,33,11.40
2010,11,12,12,34,11.40
2010,11,12,12,35,11.40
2010,11,12,12,36,11.50
2010,11,12,12,37,11.50
2010,11,12,12,38,11.60
2010,11,12,12,39,11.70
2010,11,12,12,40,11.70
2010,11,12,12,41,11.70
2010,11,12,12,42,11.80
2010,11,12,12,43,11.80
2010,11,12,12,44,11.90
2010,11,12,12,45,12.00
2010,11,12,12,46,12.10
2010,11,12,12,47,12.20
2010,11,12,12,48,12.30
2010,11,12,12,49,12.30
2010,11,12,12,50,12.30
2010,11,12,12,51,12.30
2010,11,12,12,52,12.30
2010,11,12,12,53,12.40
2010,11,12,12,54,12.50
2010,11,12,12,55,12.50
2010,11,12,12,56,12.50
2010,11,12,12,57,12.60
2010,11,12,12,58,12.60
2010,11,12,12,59,12.60
2010,11,12,13,00,12.60
2010,11,12,13,01,12.70
2010,11,12,13,02,12.70
2010,11,12,13,03,12.80
2010,11,12,13,04,12.90
2010,11,12,13,05,13.00
2010,11,12,13,06,13.00
2010,11,12,13,07,13.00
2010,11,12,13,08,13.00
2010,11,12,13,09,12.90
2010,11,12,13,10,12.90
2010,11,12,13,11,12.90
2010,11,12,13,12,12.90
2010,11,12,13,13,12.90
2010,11,12,13,14,12.80
2010,11,12,13,15,12.80
2010,11,12,13,16,12.80
2010,11,12,13,17,12.80
2010,11,12,13,18,12.80
2010,11,12,13,19,12.80
2010,11,12,13,20,12.80
2010,11,12,13,21,12.80
2010,11,12,13,22,12.80
2010,11,12,13,23,12.90
2010,11,12,13,24,12.90
2010,11,12,13,25,12.90
2010,11,12,13,26,12.90
2010,11,12,13,27,12.80
2010,11,12,13,28,12.80
2010,11,12,13,29,12.80
2010,11,12,13,30,12.70
2010,11,12,13,31,12.70
2010,11,12,13,32,12.70
2010,11,12,13,33,12.80
2010,11,12,13,34,12.80
2010,11,12,13,35,12.80
2010,11,12,13,36,12.80
2010,11,12,13,37,12.80
2010,11,12,13,38,12.80
2010,11,12,13,39,12.80
2010,11,12,13,40,12.80
2010,11,12,13,41,12.80
2010,11,12,13,42,12.90
2010,11,12,13,43,12.90
2010,11,12,13,44,12.80
2010,11,12,13,45,12.80
2010,11,12,13,46,12.90
2010,11,12,13,47,12.90
2010,11,12,13,48,12.90
2010,11,12,13,49,13.00
2010,11,12,13,50,13.00
2010,11,12,13,51,13.00
2010,11,12,13,52,13.00
2010,11,12,13,53,13.00
2010,11,12,13,54,12.90
2010,11,12,13,55,12.90
2010,11,12,13,56,12.90
2010,11,12,13,57,12.90
2010,11,12,13,58,12.90
2010,11,12,13,59,12.90
2010,11,12,14,00,12.90
2010,11,12,14,01,13.00
2010,11,12,14,02,13.00
2010,11,12,14,03,13.00
2010,11,12,14,04,12.90
2010,11,12,14,05,13.00
2010,11,12,14,06,13.00
2010,11,12,14,07,12.90
2010,11,12,14,08,12.90
2010,11,12,14,09,12.90
2010,11,12,14,10,12.90
2010,11,12,14,11,12.90
2010,11,12,14,12,12.90
2010,11,12,14,13,12.80
2010,11,12,14,14,12.80
2010,11,12,14,15,12.80
2010,11,12,14,16,12.80
2010,11,12,14,17,12.80
2010,11,12,14,18,12.80
2010,11,12,14,19,12.80
2010,11,12,14,20,12.80
2010,11,12,14,21,12.90
2010,11,12,14,22,12.90
2010,11,12,14,23,12.80
2010,11,12,14,24,12.80
2010,11,12,14,25,12.80
2010,11,12,14,26,12.80
2010,11,12,14,27,12.80
2010,11,12,14,28,12.80
2010,11,12,14,29,12.80
2010,11,12,14,30,12.80
2010,11,12,14,31,12.80
2010,11,12,14,32,12.80
2010,11,12,14,33,12.80
2010,11,12,14,34,12.80
2010,11,12,14,35,12.80
2010,11,12,14,36,12.80
2010,11,12,14,37,12.70
2010,11,12,14,38,12.50
2010,11,12,14,39,12.40
2010,11,12,14,40,12.40
2010,11,12,14,41,12.40
2010,11,12,14,42,12.30
2010,11,12,14,43,12.20
2010,11,12,14,44,12.20
2010,11,12,14,45,12.10
2010,11,12,14,46,12.00
2010,11,12,14,47,11.90
2010,11,12,14,48,11.90
2010,11,12,14,49,11.90
2010,11,12,14,50,11.80
2010,11,12,14,51,11.80
2010,11,12,14,52,11.70
2010,11,12,14,53,11.60
2010,11,12,14,54,11.60
2010,11,12,14,55,11.50
2010,11,12,14,56,11.50
2010,11,12,14,57,11.40
2010,11,12,14,58,11.40
2010,11,12,14,59,11.40
2010,11,12,15,00,11.40
2010,11,12,15,01,11.30
2010,11,12,15,02,11.30
2010,11,12,15,03,11.30
2010,11,12,15,04,11.30
2010,11,12,15,05,11.30
2010,11,12,15,06,11.30
2010,11,12,15,07,11.30
2010,11,12,15,08,11.30
2010,11,12,15,09,11.30
2010,11,12,15,10,11.30
2010,11,12,15,11,11.20
2010,11,12,15,12,11.20
2010,11,12,15,13,11.20
2010,11,12,15,14,11.10
2010,11,12,15,15,11.10
2010,11,12,15,16,11.10
2010,11,12,15,17,11.00
2010,11,12,15,18,11.00
2010,11,12,15,19,11.00
2010,11,12,15,20,10.90
2010,11,12,15,21,10.90
2010,11,12,15,22,10.90
2010,11,12,15,23,10.90
2010,11,12,15,24,10.90
2010,11,12,15,25,10.80
2010,11,12,15,26,10.80
2010,11,12,15,27,10.80
2010,11,12,15,28,10.80
2010,11,12,15,29,10.80
2010,11,12,15,30,10.70
2010,11,12,15,31,10.70
2010,11,12,15,32,10.70
2010,11,12,15,33,10.70
2010,11,12,15,34,10.70
2010,11,12,15,35,10.60
2010,11,12,15,36,10.60
2010,11,12,15,37,10.60
2010,11,12,15,38,10.60
2010,11,12,15,39,10.50
2010,11,12,15,40,10.50
2010,11,12,15,41,10.50
2010,11,12,15,42,10.50
2010,11,12,15,43,10.40
2010,11,12,15,44,10.40
2010,11,12,15,45,10.40
2010,11,12,15,46,10.40
2010,11,12,15,47,10.40
2010,11,12,15,48,10.30
2010,11,12,15,49,10.30
2010,11,12,15,50,10.30
2010,11,12,15,51,10.30
2010,11,12,15,52,10.20
2010,11,12,15,53,10.20
2010,11,12,15,54,10.20
2010,11,12,15,55,10.20
2010,11,12,15,56,10.10
2010,11,12,15,57,10.10
2010,11,12,15,58,10.10
2010,11,12,15,59,10.10
2010,11,12,16,00,10.00
2010,11,12,16,01,10.00
2010,11,12,16,02,10.00
2010,11,12,16,03,10.00
2010,11,12,16,04,9.90
2010,11,12,16,05,9.90
2010,11,12,16,06,9.90
2010,11,12,16,07,9.90
2010,11,12,16,08,9.80
2010,11,12,16,09,9.80
2010,11,12,16,10,9.80
2010,11,12,16,11,9.80
2010,11,12,16,12,9.80
2010,11,12,16,13,9.80
2010,11,12,16,14,9.70
2010,11,12,16,15,9.70
2010,11,12,16,16,9.70
2010,11,12,16,17,9.70
2010,11,12,16,18,9.60
2010,11,12,16,19,9.60
2010,11,12,16,20,9.60
2010,11,12,16,21,9.60
2010,11,12,16,22,9.60
2010,11,12,16,23,9.50
2010,11,12,16,24,9.50
2010,11,12,16,25,9.40
2010,11,12,16,26,9.40
2010,11,12,16,27,9.40
2010,11,12,16,28,9.40
2010,11,12,16,29,9.30
2010,11,12,16,30,9.30
2010,11,12,16,31,9.30
2010,11,12,16,32,9.30
2010,11,12,16,33,9.30
2010,11,12,16,34,9.30
2010,11,12,16,35,9.30
2010,11,12,16,36,9.30
2010,11,12,16,37,9.20
2010,11,12,16,38,9.20
2010,11,12,16,39,9.20
2010,11,12,16,40,9.20
2010,11,12,16,41,9.20
2010,11,12,16,42,9.20
2010,11,12,16,43,9.10
2010,11,12,16,44,9.10
2010,11,12,16,45,9.10
2010,11,12,16,46,9.10
2010,11,12,16,47,9.10
2010,11,12,16,48,9.10
2010,11,12,16,49,9.00
2010,11,12,16,50,9.00
2010,11,12,16,51,9.00
2010,11,12,16,52,9.00
2010,11,12,16,53,9.00
2010,11,12,16,54,9.00
2010,11,12,16,55,9.00
2010,11,12,16,56,8.90
2010,11,12,16,57,8.90
2010,11,12,16,58,8.90
2010,11,12,16,59,8.90
2010,11,12,17,00,8.90
2010,11,12,17,01,8.90
2010,11,12,17,02,8.90
2010,11,12,17,03,8.90
2010,11,12,17,04,8.90
2010,11,12,17,05,8.90
2010,11,12,17,06,8.90
2010,11,12,17,07,8.80
2010,11,12,17,08,8.80
2010,11,12,17,09,8.80
2010,11,12,17,10,8.80
2010,11,12,17,11,8.80
2010,11,12,17,12,8.80
2010,11,12,17,13,8.80
2010,11,12,17,14,8.80
2010,11,12,17,15,8.80
2010,11,12,17,16,8.80
2010,11,12,17,17,8.80
2010,11,12,17,18,8.80
2010,11,12,17,19,8.80
2010,11,12,17,20,8.80
2010,11,12,17,21,8.80
2010,11,12,17,22,8.80
2010,11,12,17,23,8.80
2010,11,12,17,24,8.80
2010,11,12,17,25,8.80
2010,11,12,17,26,8.80
2010,11,12,17,27,8.80
2010,11,12,17,28,8.70
2010,11,12,17,29,8.70
2010,11,12,17,30,8.70
2010,11,12,17,31,8.70
2010,11,12,17,32,8.70
2010,11,12,17,33,8.70
2010,11,12,17,34,8.70
2010,11,12,17,35,8.70
2010,11,12,17,36,8.70
2010,11,12,17,37,8.70
2010,11,12,17,38,8.70
2010,11,12,17,39,8.70
2010,11,12,17,40,8.70
2010,11,12,17,41,8.60
2010,11,12,17,42,8.60
2010,11,12,17,43,8.60
2010,11,12,17,44,8.60
2010,11,12,17,45,8.60
2010,11,12,17,46,8.60
2010,11,12,17,47,8.60
2010,11,12,17,48,8.60
2010,11,12,17,49,8.60
2010,11,12,17,50,8.60
2010,11,12,17,51,8.60
2010,11,12,17,52,8.60